#timestamp,LO_Frequency,Hit,StdDev 
1621980015.6,286046998.3,N
1621980035.5,286046998.5,N
1621980055.3,286046998.3,N
1621980075.2,286046998.1,N
1621980095.9,286046996.5,N
1621980115.7,286046999.1,N
1621980135.6,286046998.9,N
1621980155.4,286046997.0,N
1621980175.2,286046997.1,N
1621980195.1,286046996.9,N
1621980196.0,286046996.9,N
1621980215.8,286046997.0,N
1621980235.7,286046999.6,N
1621980255.5,286046999.4,N
1621980275.3,286046999.3,N
1621980295.2,286046996.7,N
1621980315.9,286046997.8,N
1621980335.7,286046997.4,N
1621980355.6,286046997.5,N
1621980375.4,286046998.0,N
1621980395.3,286046997.4,N
1621980415.1,286046999.5,N
1621980416.0,286046999.5,N
1621980435.8,286046999.4,N
1621980455.7,286046998.4,N
1621980475.5,286046998.9,N
1621980495.3,286046998.9,N
1621980515.2,286046996.9,N
1621980535.0,286046997.0,N
1621980535.9,286046997.0,N
1621980555.8,286046996.6,Y
1621980575.6,286047002.4,P
1621980595.4,286046999.9,N
1621980615.3,286047000.2,N
1621980635.1,286047000.1,N
1621980655.8,286047000.3,N
1621980675.7,286046998.6,N
1621980695.5,286047000.9,N
1621980715.4,286047000.7,N
1621980735.2,286047000.5,N
1621980755.0,286046999.9,N
1621980755.9,286046999.9,N
1621980775.8,286047000.3,N
1621980795.6,286047000.2,N
1621980815.4,286047001.5,N
1621980835.3,286047002.1,N
1621980855.1,286047001.7,N
1621980875.9,286046999.7,N
1621980895.7,286047002.7,N
1621980915.5,286047002.8,N
1621980935.4,286046999.8,N
1621980955.2,286047000.8,N
1621980975.0,286046998.2,N
1621980975.9,286046998.2,N
1621980995.8,286047001.2,N
1621981015.6,286047000.0,N
1621981035.5,286047002.4,N
1621981055.3,286046999.7,N
1621981075.1,286047002.0,N
1621981095.9,286047003.9,N
1621981115.7,286047004.0,N
1621981135.5,286047004.1,N
1621981155.4,286047003.1,N
1621981175.2,286047003.2,N
1621981195.1,286047003.9,N
1621981196.0,286047003.9,N
1621981215.8,286047003.8,N
1621981235.6,286047005.8,Y
1621981255.5,286047004.1,P
1621981275.3,286047004.0,P
1621981295.1,286047003.8,P
1621981315.9,286047003.9,Y
1621981335.7,286047001.1,P
1621981355.6,286047001.2,N
1621981375.4,286047001.2,N
1621981395.2,286047000.7,N
1621981415.1,286047000.8,N
1621981416.0,286047000.8,N
1621981435.8,286047000.3,N
1621981455.7,286046998.4,N
1621981475.5,286046998.9,N
1621981495.3,286046999.6,N
1621981515.2,286046999.6,N
1621981535.9,286046998.4,N
1621981555.7,286046998.1,N
1621981575.6,286046998.1,N
1621981595.4,286047001.1,N
1621981615.2,286046998.7,N
1621981635.1,286046996.9,N
1621981636.0,286046996.9,N
1621981655.8,286046999.2,N
1621981675.7,286046999.2,N
1621981695.5,286046999.2,N
1621981715.3,286046999.3,N
1621981735.2,286046998.1,N
1621981755.0,286047001.0,N
1621981755.9,286047001.0,N
1621981775.7,286046998.1,N
1621981795.6,286046999.1,N
1621981815.4,286046999.4,N
1621981835.3,286047001.1,N
1621981855.1,286047000.4,N
1621981856.0,286047000.4,N
1621981875.8,286047001.2,N
1621981895.7,286047001.2,N
1621981915.5,286047000.3,N
1621981935.3,286047002.8,N
1621981955.2,286047000.3,N
1621981975.0,286047000.2,N
1621981975.9,286047000.2,N
1621981995.8,286047000.0,N
1621982015.6,286046998.2,N
1621982035.4,286046998.2,N
1621982055.3,286046998.2,N
1621982075.1,286046998.2,N
1621982095.9,286047001.2,N
1621982115.7,286047000.7,N
1621982135.5,286046998.2,N
1621982155.4,286047000.9,N
1621982175.2,286047000.4,N
1621982195.0,286047000.0,N
1621982195.9,286047000.0,N
1621982215.8,286047001.0,N
1621982235.6,286047001.2,N
1621982255.5,286047000.2,N
1621982275.3,286047000.1,N
1621982295.1,286047000.4,N
1621982315.9,286047000.1,N
1621982335.7,286047000.8,N
1621982385.6,286046998.2,E
1621982395.5,286046999.9,N
1621982415.3,286047001.8,P
1621982435.2,286047002.1,N
1621982455.0,286047002.3,N
1621982455.9,286047002.3,N
1621982475.7,286047001.9,N
1621982495.6,286047002.3,N
1621982515.4,286046999.8,N
1621982535.3,286047000.6,N
1621982555.1,286046998.1,N
1621982556.0,286046998.1,N
1621982575.8,286047000.0,N
1621982595.7,286047002.5,N
1621982615.5,286047002.6,N
1621982635.3,286047002.2,N
1621982655.2,286047002.2,N
1621982675.0,286047002.2,N
1621982675.9,286047002.2,N
1621982695.8,286047002.2,N
1621982715.6,286047000.3,N
1621982735.4,286046998.1,N
1621982755.3,286046999.7,N
1621982775.1,286047000.1,N
1621982795.8,286047001.9,N
1621982815.7,286047001.6,N
1621982835.5,286047001.9,N
1621982855.4,286047001.3,N
1621982875.2,286047004.4,Y
1621982895.0,286047001.8,P
1621982895.9,286047001.8,P
1621982915.8,286047004.1,P
1621982935.6,286047004.1,Y
1621982955.4,286047000.9,P
1621982975.3,286047000.2,N
1621982995.1,286046998.7,N
1621983015.9,286047000.5,N
1621983035.7,286046998.9,N
1621983055.5,286046999.0,N
1621983075.4,286047001.1,N
1621983095.2,286047000.1,N
1621983115.0,286047002.8,N
1621983115.9,286047002.8,N
1621983135.8,286047000.0,N
1621983155.6,286047000.2,N
1621983175.5,286047002.5,N
1621983195.3,286047001.0,N
1621983215.1,286047002.3,N
1621983235.9,286046999.8,N
1621983255.7,286047002.7,N
1621983275.6,286047011.9,Y
1621983295.4,286046998.6,P
1621983315.2,286046997.1,N
1621983335.1,286046996.9,N
1621983336.0,286046996.9,N
1621983355.8,286046996.6,N
1621983375.6,286046996.5,N
1621983395.5,286046996.9,N
1621983415.3,286046997.7,N
1621983435.2,286046997.7,N
1621983455.9,286046997.1,N
1621983475.7,286046996.7,N
1621983495.6,286046997.4,N
1621983515.4,286046997.8,N
1621983535.2,286046997.1,N
1621983555.1,286046996.9,N
1621983556.0,286046996.9,Y
1621983575.8,286047000.4,P
1621983595.7,286046998.2,N
